Regional Weather Roundup
Issued by NWS

Home | Current Version | Previous Version | Graphics & Text | Print | Product List | Glossary On
Versions: 1 2 3 4 5 6 7 8 9 10 11 12 13 14 15 16 17 18 19 20 21 22 23 24 25 26 27
000
ASUS45 KPSR 221410
RWRAZ

ARIZONA HOURLY REGIONAL WEATHER ROUNDUP
NATIONAL WEATHER SERVICE PHOENIX AZ
700 AM MST WED FEB 22 2017

NOTE: FAIR INDICATES FEW OR NO CLOUDS BELOW 12,000 FEET WITH NO
SIGNIFICANT WEATHER AND/OR OBSTRUCTIONS TO VISIBILITY.

AZZ001>003-036-221500-
NORTHWEST ARIZONA

CITY           SKY/WX    TMP DP  RH WIND       PRES   REMARKS
BULLHEAD CITY  PTCLDY    55  50  82 SE5       30.00S
KINGMAN        PTCLDY    46  37  71 VRB5      30.03F
$$

AZZ004>008-015-016-018-221500-
NORTH CENTRAL ARIZONA

CITY           SKY/WX    TMP DP  RH WIND       PRES   REMARKS
GRAND CANYON   CLOUDY    40  39  97 S12       30.11F WCI  33
WILLIAMS       MOCLDY    43  37  81 S15       30.12F
PRESCOTT       MOCLDY    42  40  92 S5        30.12F
FLAGSTAFF      CLOUDY    41  38  89 SW10      30.16F
PAYSON         MOCLDY    43  39  87 CALM      30.17F
PAGE           MOCLDY    45  36  70 CALM      29.98F
$$

AZZ009>014-017-221500-
NORTHEAST ARIZONA

CITY           SKY/WX    TMP DP  RH WIND       PRES   REMARKS
WINSLOW        MOCLDY    39  37  92 E6        30.11F WCI  35
SAINT JOHNS    MOCLDY    34  31  88 CALM      30.13S
SHOW LOW       PTCLDY    41  32  70 S8        30.17S
$$

AZZ023-221500-
GREATER PHOENIX AREA

CITY           SKY/WX    TMP DP  RH WIND       PRES   REMARKS
PHOENIX        MOCLDY    56  51  84 E7        30.03S
BUCKEYE        MOCLDY    52  52 100 CALM      30.04R
GLENDALE       MOCLDY    57  54  88 CALM      30.05F
LUKE AFB       MOCLDY    54  54 100 CALM      30.03S
DEER VALLEY    MOCLDY    53  51  93 CALM      30.03F
SCOTTSDALE     MOCLDY    55  51  86 CALM      30.07S
MESA-FALCON      N/A    N/A N/A N/A N6        30.02
CHANDLER       CLEAR     54  50  87 NE6       30.05S
$$

AZZ027-028-221500-
SOUTHWEST MARICOPA COUNTY AND PINAL COUNTY

CITY           SKY/WX    TMP DP  RH WIND       PRES   REMARKS
CASA GRANDE    NOT AVBL
GILA BEND      PTCLDY    53  51  94 SE5       30.03S
$$

AZZ503-504-507>509-221500-
SOUTHEAST ARIZONA

CITY           SKY/WX    TMP DP  RH WIND       PRES   REMARKS
TUCSON         CLEAR     51  42  71 SE12      30.09F
DAVIS-MONTHAN  CLEAR     51  42  72 SE13      30.08F
RYAN FIELD     CLEAR     46  43  87 SE3       30.19R
NOGALES        CLEAR     41  36  82 E3        30.13S
SIERRA VISTA   CLEAR     46  38  74 CALM      30.16S
DOUGLAS        CLEAR     40  34  79 SE5       30.14F
SAFFORD        CLEAR     43  38  82 SE7       30.09F
$$

AZZ020-021-025-026-031-221500-
SOUTHWEST ARIZONA

CITY           SKY/WX    TMP DP  RH WIND       PRES   REMARKS
YUMA           MOCLDY    57  53  86 CALM      30.00S
$$

CAZ031-033-041-043-047-048-061-221500-
SOUTHERN CALIFORNIA

CITY           SKY/WX    TMP DP  RH WIND       PRES   REMARKS
DOWNTOWN L.A.  CLEAR     52  50  93 CALM      30.13F
L.A. AIRPORT   PTCLDY    53  52  96 CALM      30.14F
SAN DIEGO      LGT RAIN  58  54  86 NW8       30.16R
BURBANK        PTCLDY    48  46  93 NW5       30.12F
ONTARIO        MOCLDY    52  50  93 W8        30.12F
RIVERSIDE      CLOUDY    52  52 100 W3        30.13S
PALM SPRINGS   PTCLDY    53  49  86 CALM      30.00F
EL CENTRO NAS  MOCLDY    53  41  63 W8        30.01F
IMPERIAL       MOCLDY    57  42  57 NW5       30.00S
BLYTHE         MOCLDY    58  54  86 NW8       30.00S
NEEDLES        MOCLDY    55  50  83 W5        30.00S
$$

NVZ020-UTZ003-221500-
SOUTHERN NEVADA-UTAH

CITY           SKY/WX    TMP DP  RH WIND       PRES   REMARKS
LAS VEGAS      PTCLDY    56  31  38 S14G22    29.91S
SALT LAKE CITY CLOUDY    36  34  92 S3        30.00F
$$

NMZ009-TXZ055-221500-
NEW MEXICO-WEST TEXAS

CITY           SKY/WX    TMP DP  RH WIND       PRES   REMARKS
ALBUQUERQUE    PTCLDY    45  34  65 E5        30.14F
EL PASO        PTCLDY    49  33  54 S8        30.10F
$$


........................KEY........................
SKY/WX - SKY CONDITION/WEATHER
TMP    - TEMPERATURE IN FAHRENHEIT
DP     - DEW POINT IN FAHRENHEIT
RH     - RELATIVE HUMIDITY IN PERCENT
WIND   - DIRECTION AND SPEED IN MILES PER HOUR (MPH)
VRB    - VARIABLE WIND DIRECTION
PRES   - MEAN SEA LEVEL PRESSURE IN INCHES OF MERCURY
         F - FALLING PRESSURE   R - RISING PRESSURE
         S - STEADY PRESSURE
VSB    - VISIBILITY IN MILES
HX     - HEAT INDEX IN FAHRENHEIT
WCI    - WIND CHILL INDEX IN FAHRENHEIT
TC     - TEMPERATURE IN CELSIUS WHICH IS ALSO KNOWN AS
         TEMPERATURE IN CENTIGRADE
AFB    - AIR FORCE BASE
         LUKE AFB IS LUKE AIR FORCE BASE
         DAVIS-MONTHAN IS DAVIS-MONTHAN AIR FORCE BASE
NAS    - NAVAL AIR STATION
         EL CENTRO NAS IS EL CENTRO NAVAL AIR STATION
N/A    - NOT AVAILABLE





USA.gov is the U.S. government's official web portal to all federal, state and local government web resources and services.